This is the latest recevied weather packets stored in our database for station/object WC4PEM-13. If no packets are shown the sender has not sent any weather packets the latest 10 day(s).
| Time | Temp. | Humidity | Pressure | Rain* | Wind** | Luminosity | Snow |
|---|---|---|---|---|---|---|---|
| 1777072974 | 27.22° C | 63% | 1011.3 hPa | 0 mm | - | - | - |
| 1777072674 | 27.22° C | 62% | 1011.3 hPa | 0 mm | - | - | - |
| 1777072374 | 27.78° C | 60% | 1011.1 hPa | 0 mm | - | - | - |
| 1777072074 | 28.33° C | 59% | 1011.1 hPa | 0 mm | - | - | - |
| 1777071775 | 28.33° C | 59% | 1011.2 hPa | 0 mm | - | - | - |
| 1777071475 | 28.33° C | 57% | 1011.2 hPa | 0 mm | - | - | - |
| 1777071175 | 28.89° C | 55% | 1011 hPa | 0 mm | - | - | - |
| 1777070875 | 28.89° C | 56% | 1011 hPa | 0 mm | - | - | - |
| 1777070575 | 28.89° C | 56% | 1011 hPa | 0 mm | - | - | - |
| 1777070275 | 28.33° C | 56% | 1011.1 hPa | 0 mm | - | - | - |
| 1777069975 | 28.33° C | 56% | 1011.1 hPa | 0 mm | - | - | - |
| 1777069675 | 28.33° C | 55% | 1011 hPa | 0 mm | - | - | - |
| 1777069375 | 28.89° C | 53% | 1011.2 hPa | 0 mm | - | - | - |
| 1777069075 | 29.44° C | 53% | 1011.1 hPa | 0 mm | - | - | - |
| 1777068775 | 29.44° C | 51% | 1011.2 hPa | 0 mm | - | - | - |
| 1777068475 | 29.44° C | 52% | 1011.1 hPa | 0 mm | - | - | - |
| 1777068175 | 29.44° C | 53% | 1011.3 hPa | 0 mm | - | - | - |
| 1777067875 | 29.44° C | 52% | 1011.1 hPa | 0 mm | - | - | - |
| 1777067575 | 29.44° C | 53% | 1011.1 hPa | 0 mm | - | - | - |
| 1777067275 | 29.44° C | 54% | 1011.2 hPa | 0 mm | - | - | - |
| 1777066975 | 28.89° C | 53% | 1011.2 hPa | 0 mm | - | - | - |
| 1777066675 | 28.89° C | 54% | 1011 hPa | 0 mm | - | - | - |
| 1777066375 | 28.89° C | 53% | 1011.1 hPa | 0 mm | - | - | - |
| 1777066075 | 28.89° C | 53% | 1011.1 hPa | 0 mm | - | - | - |
| 1777065775 | 28.89° C | 51% | 1011.1 hPa | 0 mm | - | - | - |
* Rain latest hour (hover to see other rain measurements)
** Current wind speed in m/s (hover to see current wind gust speed)